Location: Fort Worth, Tx
(32.7431°N, 97.3695°W)
Time: 07:18:18
(UTC-04:00)

Vanguard 2 - Pass Details

Date: 26 February 2024
Orbit: 552 x 2916 km, 32.9° (Epoch: 24 April)

Event Time Altitude Azimuth Distance (km) Brightness Sun altitude
Rises 23:00:21 0° 274° (W) 5,017 12.4 -45.5°
Reaches altitude 10° 23:03:11 10° 274° (W) 4,291 11.8 -46.0°
Enters shadow 23:13:57 74° 274° (W) 2,547 9.9 -48.1°
